This is the latest recevied weather packets stored in our database for station/object PU2XNA. If no packets are shown the sender has not sent any weather packets the latest 10 day(s).
| Time | Temp. | Humidity | Pressure | Rain* | Wind** | Luminosity | Snow |
|---|---|---|---|---|---|---|---|
| 1788142502 | 26.11° C | 38% | 1011.6 hPa | - | - | - | - |
| 1788141602 | 26.67° C | 38% | 1011.8 hPa | - | - | - | - |
| 1788140703 | 26.67° C | 38% | 1011.8 hPa | - | - | - | - |
| 1788139804 | 27.22° C | 38% | 1011.5 hPa | - | - | - | - |
| 1788138903 | 27.78° C | 38% | 1011.2 hPa | - | - | - | - |
| 1788138002 | 27.22° C | 38% | 1011.6 hPa | - | - | - | - |
| 1788137102 | 27.22° C | 38% | 1011.7 hPa | - | - | - | - |
| 1788136203 | 27.78° C | 38% | 1011.8 hPa | - | - | - | - |
| 1788135321 | 27.78° C | 38% | 1011.8 hPa | - | - | - | - |
| 1788134403 | 28.89° C | 38% | 1011.2 hPa | - | - | - | - |
| 1788133503 | 30° C | 38% | 1011.2 hPa | - | - | - | - |
| 1788132603 | 30° C | 38% | 1010.1 hPa | - | - | - | - |
| 1788131704 | 30° C | 38% | 1009.5 hPa | - | - | - | - |
| 1788130803 | 30.56° C | 38% | 1009.4 hPa | - | - | - | - |
| 1788129904 | 30.56° C | 38% | 1009.5 hPa | - | - | - | - |
| 1788129015 | 31.11° C | 38% | 1009.4 hPa | - | - | - | - |
| 1788128104 | 31.11° C | 38% | 1009.3 hPa | - | - | - | - |
| 1788127203 | 31.11° C | 38% | 1009.1 hPa | - | - | - | - |
| 1788126303 | 31.67° C | 38% | 1009.1 hPa | - | - | - | - |
| 1788125402 | 30.56° C | 38% | 1008.9 hPa | - | - | - | - |
| 1788124503 | 31.11° C | 38% | 1008.7 hPa | - | - | - | - |
| 1788123603 | 31.67° C | 38% | 1008.5 hPa | - | - | - | - |
| 1788122703 | 32.22° C | 38% | 1008.4 hPa | - | - | - | - |
| 1788121803 | 32.78° C | 38% | 1008.1 hPa | - | - | - | - |
| 1788120913 | 33.33° C | 38% | 1008 hPa | - | - | - | - |
* Rain since midnight (hover to see other rain measurements)
** Current wind speed in m/s (hover to see current wind gust speed)